Satellite: FALCON
Catalog number: 30776
Epoch time:      09245.67217934
Element set:    0658
Inclination:      035.4350 deg
RA of node:       349.2776 deg
Eccentricity:    0.0001468
Arg of perigee:   282.8359 deg
Mean anomaly:     077.2193 deg
Mean motion:   15.03293840 rev/day
Decay rate:       2.32e-06 rev/day^2
Epoch rev:           13676
Checksum:              318

Satellite: MAST
Catalog number: 31126
Epoch time:      09246.58105012
Element set:     676
Inclination:      097.9816 deg
RA of node:       297.7669 deg
Eccentricity:    0.0095444
Arg of perigee:   037.0922 deg
Mean anomaly:     323.6831 deg
Mean motion:   14.53514252 rev/day
Decay rate:       -1.0e-08 rev/day^2
Epoch rev:           12642
Checksum:              296

Satellite: CAPE1
Catalog number: 31130
Epoch time:      09245.11238245
Element set:    0694
Inclination:      097.9812 deg
RA of node:       294.3792 deg
Eccentricity:    0.0103735
Arg of perigee:   047.5354 deg
Mean anomaly:     313.4554 deg
Mean motion:   14.52082578 rev/day
Decay rate:        2.0e-08 rev/day^2
Epoch rev:           12585
Checksum:              294

Satellite: COMPASS
Catalog number: 32787
Epoch time:      09245.29362386
Element set:    0462
Inclination:      097.9363 deg
RA of node:       308.4411 deg
Eccentricity:    0.0016617
Arg of perigee:   138.7542 deg
Mean anomaly:     221.4912 deg
Mean motion:   14.81648030 rev/day
Decay rate:       2.24e-06 rev/day^2
Epoch rev:           07286
Checksum:              303

Satellite: AAUSAT2
Catalog number: 32788
Epoch time:      09245.66023417
Element set:    0450
Inclination:      097.9350 deg
RA of node:       308.8747 deg
Eccentricity:    0.0016124
Arg of perigee:   138.2193 deg
Mean anomaly:     222.0248 deg
Mean motion:   14.81771539 rev/day
Decay rate:        5.0e-08 rev/day^2
Epoch rev:           07292
Checksum:              301

Satellite: DO-64
Catalog number: 32789
Epoch time:      09245.81711938
Element set:     463
Inclination:      097.9393 deg
RA of node:       309.2434 deg
Eccentricity:    0.0016400
Arg of perigee:   136.2664 deg
Mean anomaly:     223.9845 deg
Mean motion:   14.81780080 rev/day
Decay rate:       4.23e-06 rev/day^2
Epoch rev:            7294
Checksum:              325

Satellite: CO-66
Catalog number: 32791
Epoch time:      09245.21039378
Element set:     444
Inclination:      097.9379 deg
RA of node:       308.3913 deg
Eccentricity:    0.0016618
Arg of perigee:   136.8040 deg
Mean anomaly:     223.4472 deg
Mean motion:   14.81471287 rev/day
Decay rate:       1.68e-06 rev/day^2
Epoch rev:            7281
Checksum:              324

Satellite: RS-30
Catalog number: 32953
Epoch time:      09245.86224501
Element set:     395
Inclination:      082.4996 deg
RA of node:       208.3072 deg
Eccentricity:    0.0020033
Arg of perigee:   013.4639 deg
Mean anomaly:     346.6973 deg
Mean motion:   12.43002898 rev/day
Decay rate:        1.0e-07 rev/day^2
Epoch rev:            5804
Checksum:              288

Satellite: TACSAT-3
Catalog number: 35001
Epoch time:      09245.88643891
Element set:    0100
Inclination:      040.4548 deg
RA of node:       135.9216 deg
Eccentricity:    0.0024655
Arg of perigee:   016.2996 deg
Mean anomaly:     343.8611 deg
Mean motion:   15.39101085 rev/day
Decay rate:      2.099e-05 rev/day^2
Epoch rev:           01632
Checksum:              287

Satellite: PHARMSAT
Catalog number: 35002
Epoch time:      09245.89853753
Element set:    0093
Inclination:      040.4677 deg
RA of node:       135.2296 deg
Eccentricity:    0.0026883
Arg of perigee:   020.7891 deg
Mean anomaly:     339.4037 deg
Mean motion:   15.39855246 rev/day
Decay rate:      1.660e-05 rev/day^2
Epoch rev:           01632
Checksum:              310

Satellite: HAWKSAT1
Catalog number: 35003
Epoch time:      09246.90045768
Element set:      90
Inclination:      040.4601 deg
RA of node:       128.6556 deg
Eccentricity:    0.0027447
Arg of perigee:   031.3729 deg
Mean anomaly:     328.8721 deg
Mean motion:   15.40534533 rev/day
Decay rate:      3.525e-05 rev/day^2
Epoch rev:            1649
Checksum:              285

Satellite: CP6
Catalog number: 35004
Epoch time:      09245.92749964
Element set:    0094
Inclination:      040.4604 deg
RA of node:       134.4848 deg
Eccentricity:    0.0027908
Arg of perigee:   024.2914 deg
Mean anomaly:     335.9249 deg
Mean motion:   15.40573763 rev/day
Decay rate:      4.255e-05 rev/day^2
Epoch rev:           01633
Checksum:              312

Satellite: AEROCUB3
Catalog number: 35005
Epoch time:      09245.94011338
Element set:    0084
Inclination:      040.4726 deg
RA of node:       134.7010 deg
Eccentricity:    0.0027485
Arg of perigee:   021.6736 deg
Mean anomaly:     338.5250 deg
Mean motion:   15.40374909 rev/day
Decay rate:      4.062e-05 rev/day^2
Epoch rev:           01633
Checksum:              268

Satellite: DRAGNSAT
Catalog number: 35690
Epoch time:      09245.46831881
Element set:    0047
Inclination:      051.6405 deg
RA of node:       268.1637 deg
Eccentricity:    0.0002165
Arg of perigee:   179.8406 deg
Mean anomaly:     180.2600 deg
Mean motion:   15.81759814 rev/day
Decay rate:     2.1964e-04 rev/day^2
Epoch rev:           00537
Checksum:              306

